Back to catalog

FENGYUN 1C DEB

AliveLEO
NORAD 32178·DEBRIS·🇨🇳 China

Launched May 10, 1999 from Taiyuan Satellite Launch Center

Loading…

Next Passes (next 24 hours)

TLE

FreshSource: Space-Track

Epoch: Sep 14, 2026, 08:56 UTC

1 32178U 99025CTY 26257.37277648  .00001175  00000-0  51299-3 0  9995
2 32178 100.2895 310.4620 0092211 284.2423  74.8523 14.24112864679255

Track FENGYUN 1C DEB in real time with AllMySat

Download on the App Store